Year,Month,Day,Hour,Minute,Value (Times are PST for windspeed in km/hr)
2017,05,23,00,00,3.30
2017,05,23,00,01,3.20
2017,05,23,00,02,2.50
2017,05,23,00,03,3.20
2017,05,23,00,04,2.50
2017,05,23,00,05,2.40
2017,05,23,00,06,2.50
2017,05,23,00,07,2.80
2017,05,23,00,08,1.80
2017,05,23,00,09,1.60
2017,05,23,00,10,2.10
2017,05,23,00,11,1.40
2017,05,23,00,12,2.20
2017,05,23,00,13,2.20
2017,05,23,00,14,2.20
2017,05,23,00,15,1.90
2017,05,23,00,16,1.60
2017,05,23,00,17,1.30
2017,05,23,00,18,0.10
2017,05,23,00,19,0.00
2017,05,23,00,20,0.00
2017,05,23,00,21,0.00
2017,05,23,00,22,0.90
2017,05,23,00,23,1.80
2017,05,23,00,24,2.10
2017,05,23,00,25,2.50
2017,05,23,00,26,2.00
2017,05,23,00,27,1.10
2017,05,23,00,28,1.30
2017,05,23,00,29,1.20
2017,05,23,00,30,0.70
2017,05,23,00,31,0.50
2017,05,23,00,32,1.60
2017,05,23,00,33,1.10
2017,05,23,00,34,0.30
2017,05,23,00,35,0.00
2017,05,23,00,36,0.00
2017,05,23,00,37,0.00
2017,05,23,00,38,0.00
2017,05,23,00,39,0.00
2017,05,23,00,40,0.00
2017,05,23,00,41,0.00
2017,05,23,00,42,0.00
2017,05,23,00,43,0.00
2017,05,23,00,44,0.20
2017,05,23,00,45,1.40
2017,05,23,00,46,0.30
2017,05,23,00,47,0.20
2017,05,23,00,48,0.60
2017,05,23,00,49,1.20
2017,05,23,00,50,0.80
2017,05,23,00,51,3.70
2017,05,23,00,52,1.70
2017,05,23,00,53,2.00
2017,05,23,00,54,1.90
2017,05,23,00,55,1.40
2017,05,23,00,56,4.20
2017,05,23,00,57,2.90
2017,05,23,00,58,2.60
2017,05,23,00,59,2.20
2017,05,23,01,00,4.40
2017,05,23,01,01,1.90
2017,05,23,01,02,2.60
2017,05,23,01,03,3.40
2017,05,23,01,04,3.20
2017,05,23,01,05,1.70
2017,05,23,01,06,2.90
2017,05,23,01,07,1.80
2017,05,23,01,08,0.60
2017,05,23,01,09,1.40
2017,05,23,01,10,0.20
2017,05,23,01,11,1.40
2017,05,23,01,12,1.20
2017,05,23,01,13,2.10
2017,05,23,01,14,1.80
2017,05,23,01,15,2.40
2017,05,23,01,16,0.30
2017,05,23,01,17,2.30
2017,05,23,01,18,1.20
2017,05,23,01,19,2.20
2017,05,23,01,20,3.20
2017,05,23,01,21,2.00
2017,05,23,01,22,2.70
2017,05,23,01,23,5.70
2017,05,23,01,24,2.70
2017,05,23,01,25,1.40
2017,05,23,01,26,3.30
2017,05,23,01,27,4.30
2017,05,23,01,28,4.00
2017,05,23,01,29,4.90
2017,05,23,01,30,4.10
2017,05,23,01,31,2.40
2017,05,23,01,32,4.10
2017,05,23,01,33,3.10
2017,05,23,01,34,1.80
2017,05,23,01,35,2.70
2017,05,23,01,36,4.00
2017,05,23,01,37,5.00
2017,05,23,01,38,3.70
2017,05,23,01,39,2.30
2017,05,23,01,40,4.10
2017,05,23,01,41,3.70
2017,05,23,01,42,2.70
2017,05,23,01,43,2.10
2017,05,23,01,44,3.30
2017,05,23,01,45,2.20
2017,05,23,01,46,2.90
2017,05,23,01,47,5.90
2017,05,23,01,48,5.60
2017,05,23,01,49,4.80
2017,05,23,01,50,3.80
2017,05,23,01,51,3.00
2017,05,23,01,52,3.40
2017,05,23,01,53,4.90
2017,05,23,01,54,3.40
2017,05,23,01,55,6.00
2017,05,23,01,56,6.70
2017,05,23,01,57,6.60
2017,05,23,01,58,7.40
2017,05,23,01,59,6.00
2017,05,23,02,00,3.80
2017,05,23,02,01,10.60
2017,05,23,02,02,6.70
2017,05,23,02,03,3.00
2017,05,23,02,04,1.70
2017,05,23,02,05,1.80
2017,05,23,02,06,2.90
2017,05,23,02,07,7.30
2017,05,23,02,08,2.80
2017,05,23,02,09,2.50
2017,05,23,02,10,3.60
2017,05,23,02,11,4.40
2017,05,23,02,12,3.60
2017,05,23,02,13,2.50
2017,05,23,02,14,3.30
2017,05,23,02,15,1.80
2017,05,23,02,16,5.10
2017,05,23,02,17,3.90
2017,05,23,02,18,2.10
2017,05,23,02,19,4.20
2017,05,23,02,20,4.50
2017,05,23,02,21,3.40
2017,05,23,02,22,4.80
2017,05,23,02,23,7.10
2017,05,23,02,24,3.80
2017,05,23,02,25,3.40
2017,05,23,02,26,3.10
2017,05,23,02,27,3.80
2017,05,23,02,28,6.00
2017,05,23,02,29,3.70
2017,05,23,02,30,4.70
2017,05,23,02,31,1.10
2017,05,23,02,32,2.80
2017,05,23,02,33,1.50
2017,05,23,02,34,2.90
2017,05,23,02,35,4.30
2017,05,23,02,36,0.40
2017,05,23,02,37,3.40
2017,05,23,02,38,2.90
2017,05,23,02,39,1.40
2017,05,23,02,40,1.90
2017,05,23,02,41,3.50
2017,05,23,02,42,2.10
2017,05,23,02,43,0.80
2017,05,23,02,44,1.60
2017,05,23,02,45,1.00
2017,05,23,02,46,0.90
2017,05,23,02,47,1.20
2017,05,23,02,48,3.70
2017,05,23,02,49,2.70
2017,05,23,02,50,1.50
2017,05,23,02,51,1.70
2017,05,23,02,52,1.80
2017,05,23,02,53,0.90
2017,05,23,02,54,0.60
2017,05,23,02,55,2.60
2017,05,23,02,56,2.20
2017,05,23,02,57,1.50
2017,05,23,02,58,2.80
2017,05,23,02,59,1.60
2017,05,23,03,00,1.40
2017,05,23,03,01,0.30
2017,05,23,03,02,0.30
2017,05,23,03,03,1.30
2017,05,23,03,04,0.90
2017,05,23,03,05,0.30
2017,05,23,03,06,0.40
2017,05,23,03,07,0.10
2017,05,23,03,08,0.30
2017,05,23,03,09,0.70
2017,05,23,03,10,0.90
2017,05,23,03,11,1.00
2017,05,23,03,12,0.20
2017,05,23,03,13,0.10
2017,05,23,03,14,0.90
2017,05,23,03,15,2.10
2017,05,23,03,16,2.70
2017,05,23,03,17,2.20
2017,05,23,03,18,2.80
2017,05,23,03,19,2.30
2017,05,23,03,20,2.90
2017,05,23,03,21,3.50
2017,05,23,03,22,1.90
2017,05,23,03,23,2.10
2017,05,23,03,24,2.70
2017,05,23,03,25,2.10
2017,05,23,03,26,2.40
2017,05,23,03,27,1.90
2017,05,23,03,28,1.50
2017,05,23,03,29,1.00
2017,05,23,03,30,0.60
2017,05,23,03,31,1.30
2017,05,23,03,32,0.90
2017,05,23,03,33,0.60
2017,05,23,03,34,1.30
2017,05,23,03,35,3.00
2017,05,23,03,36,3.60
2017,05,23,03,37,3.90
2017,05,23,03,38,4.70
2017,05,23,03,39,4.20
2017,05,23,03,40,3.30
2017,05,23,03,41,3.00
2017,05,23,03,42,3.20
2017,05,23,03,43,2.50
2017,05,23,03,44,1.90
2017,05,23,03,45,1.40
2017,05,23,03,46,0.30
2017,05,23,03,47,0.10
2017,05,23,03,48,0.20
2017,05,23,03,49,1.30
2017,05,23,03,50,0.20
2017,05,23,03,51,2.40
2017,05,23,03,52,1.80
2017,05,23,03,53,1.10
2017,05,23,03,54,1.90
2017,05,23,03,55,2.30
2017,05,23,03,56,2.60
2017,05,23,03,57,2.80
2017,05,23,03,58,3.80
2017,05,23,03,59,2.90
2017,05,23,04,00,2.60
2017,05,23,04,01,2.40
2017,05,23,04,02,1.40
2017,05,23,04,03,0.30
2017,05,23,04,04,1.30
2017,05,23,04,05,2.10
2017,05,23,04,06,2.50
2017,05,23,04,07,1.80
2017,05,23,04,08,1.50
2017,05,23,04,09,0.40
2017,05,23,04,10,0.60
2017,05,23,04,11,0.60
2017,05,23,04,12,2.40
2017,05,23,04,13,2.40
2017,05,23,04,14,2.40
2017,05,23,04,15,3.20
2017,05,23,04,16,2.30
2017,05,23,04,17,1.20
2017,05,23,04,18,2.70
2017,05,23,04,19,2.40
2017,05,23,04,20,2.40
2017,05,23,04,21,1.30
2017,05,23,04,22,1.10
2017,05,23,04,23,0.70
2017,05,23,04,24,0.00
2017,05,23,04,25,0.00
2017,05,23,04,26,0.60
2017,05,23,04,27,0.00
2017,05,23,04,28,0.80
2017,05,23,04,29,1.60
2017,05,23,04,30,0.90
2017,05,23,04,31,1.30
2017,05,23,04,32,1.80
2017,05,23,04,33,1.30
2017,05,23,04,34,1.00
2017,05,23,04,35,1.20
2017,05,23,04,36,1.70
2017,05,23,04,37,1.70
2017,05,23,04,38,1.40
2017,05,23,04,39,1.60
2017,05,23,04,40,1.40
2017,05,23,04,41,2.60
2017,05,23,04,42,1.80
2017,05,23,04,43,2.50
2017,05,23,04,44,2.50
2017,05,23,04,45,0.90
2017,05,23,04,46,0.00
2017,05,23,04,47,1.20
2017,05,23,04,48,2.30
2017,05,23,04,49,1.20
2017,05,23,04,50,1.20
2017,05,23,04,51,1.40
2017,05,23,04,52,1.10
2017,05,23,04,53,0.90
2017,05,23,04,54,1.30
2017,05,23,04,55,1.30
2017,05,23,04,56,1.70
2017,05,23,04,57,1.40
2017,05,23,04,58,1.40
2017,05,23,04,59,1.40
2017,05,23,05,00,1.80
2017,05,23,05,01,2.40
2017,05,23,05,02,1.30
2017,05,23,05,03,1.00
2017,05,23,05,04,0.40
2017,05,23,05,05,0.40
2017,05,23,05,06,1.20
2017,05,23,05,07,2.00
2017,05,23,05,08,2.40
2017,05,23,05,09,1.50
2017,05,23,05,10,0.80
2017,05,23,05,11,0.10
2017,05,23,05,12,1.60
2017,05,23,05,13,2.50
2017,05,23,05,14,2.50
2017,05,23,05,15,2.00
2017,05,23,05,16,2.10
2017,05,23,05,17,1.70
2017,05,23,05,18,2.30
2017,05,23,05,19,1.60
2017,05,23,05,20,0.50
2017,05,23,05,21,1.10
2017,05,23,05,22,1.00
2017,05,23,05,23,1.20
2017,05,23,05,24,2.10
2017,05,23,05,25,3.90
2017,05,23,05,26,2.20
2017,05,23,05,27,2.00
2017,05,23,05,28,2.10
2017,05,23,05,29,2.20
2017,05,23,05,30,0.30
2017,05,23,05,31,1.10
2017,05,23,05,32,1.70
2017,05,23,05,33,0.60
2017,05,23,05,34,1.00
2017,05,23,05,35,2.00
2017,05,23,05,36,1.00
2017,05,23,05,37,2.90
2017,05,23,05,38,0.70
2017,05,23,05,39,2.50
2017,05,23,05,40,1.80
2017,05,23,05,41,2.20
2017,05,23,05,42,0.30
2017,05,23,05,43,4.40
2017,05,23,05,44,0.80
2017,05,23,05,45,0.40
2017,05,23,05,46,1.60
2017,05,23,05,47,1.40
2017,05,23,05,48,1.70
2017,05,23,05,49,2.90
2017,05,23,05,50,3.60
2017,05,23,05,51,3.20
2017,05,23,05,52,2.50
2017,05,23,05,53,2.80
2017,05,23,05,54,2.50
2017,05,23,05,55,2.90
2017,05,23,05,56,2.50
2017,05,23,05,57,1.30
2017,05,23,05,58,2.20
2017,05,23,05,59,3.10
2017,05,23,06,00,3.10
2017,05,23,06,01,2.40
2017,05,23,06,02,1.80
2017,05,23,06,03,0.30
2017,05,23,06,04,0.00
2017,05,23,06,05,0.00
2017,05,23,06,06,1.20
2017,05,23,06,07,2.20
2017,05,23,06,08,2.20
2017,05,23,06,09,2.00
2017,05,23,06,10,1.80
2017,05,23,06,11,1.80
2017,05,23,06,12,1.60
2017,05,23,06,13,1.70
2017,05,23,06,14,1.50
2017,05,23,06,15,1.30
2017,05,23,06,16,2.40
2017,05,23,06,17,2.10
2017,05,23,06,18,3.20
2017,05,23,06,19,1.40
2017,05,23,06,20,0.90
2017,05,23,06,21,0.40
2017,05,23,06,22,0.00
2017,05,23,06,23,0.00
2017,05,23,06,24,0.20
2017,05,23,06,25,1.40
2017,05,23,06,26,0.30
2017,05,23,06,27,0.10
2017,05,23,06,28,1.10
2017,05,23,06,29,0.50
2017,05,23,06,30,2.00
2017,05,23,06,31,1.10
2017,05,23,06,32,0.60
2017,05,23,06,33,1.60
2017,05,23,06,34,1.90
2017,05,23,06,35,2.90
2017,05,23,06,36,2.30
2017,05,23,06,37,2.40
2017,05,23,06,38,2.90
2017,05,23,06,39,3.00
2017,05,23,06,40,2.50
2017,05,23,06,41,2.30
2017,05,23,06,42,1.10
2017,05,23,06,43,3.30
2017,05,23,06,44,1.90
2017,05,23,06,45,3.70
2017,05,23,06,46,4.90
2017,05,23,06,47,6.00
2017,05,23,06,48,6.90
2017,05,23,06,49,4.50
2017,05,23,06,50,5.60
2017,05,23,06,51,8.90
2017,05,23,06,52,6.20
2017,05,23,06,53,7.10
2017,05,23,06,54,6.90
2017,05,23,06,55,6.80
2017,05,23,06,56,9.10
2017,05,23,06,57,5.60
2017,05,23,06,58,7.20
2017,05,23,06,59,8.60
2017,05,23,07,00,6.80
2017,05,23,07,01,3.80
2017,05,23,07,02,3.10
2017,05,23,07,03,3.50
2017,05,23,07,04,5.90
2017,05,23,07,05,6.70
2017,05,23,07,06,4.70
2017,05,23,07,07,7.10
2017,05,23,07,08,2.70
2017,05,23,07,09,4.30
2017,05,23,07,10,7.90
2017,05,23,07,11,6.80
2017,05,23,07,12,6.60
2017,05,23,07,13,5.10
2017,05,23,07,14,5.70
2017,05,23,07,15,3.90
2017,05,23,07,16,4.90
2017,05,23,07,17,2.10
2017,05,23,07,18,4.70
2017,05,23,07,19,3.50
2017,05,23,07,20,1.10
2017,05,23,07,21,1.20
2017,05,23,07,22,2.80
2017,05,23,07,23,2.20
2017,05,23,07,24,2.20
2017,05,23,07,25,2.60
2017,05,23,07,26,1.20
2017,05,23,07,27,0.20
2017,05,23,07,28,1.60
2017,05,23,07,29,1.90
2017,05,23,07,30,2.40
2017,05,23,07,31,3.40
2017,05,23,07,32,4.90
2017,05,23,07,33,2.80
2017,05,23,07,34,1.40
2017,05,23,07,35,1.90
2017,05,23,07,36,2.00
2017,05,23,07,37,2.00
2017,05,23,07,38,1.70
2017,05,23,07,39,3.00
2017,05,23,07,40,1.80
2017,05,23,07,41,1.80
2017,05,23,07,42,2.10
2017,05,23,07,43,1.80
2017,05,23,07,44,2.30
2017,05,23,07,45,2.80
2017,05,23,07,46,1.20
2017,05,23,07,47,1.10
2017,05,23,07,48,0.70
2017,05,23,07,49,0.60
2017,05,23,07,50,1.90
2017,05,23,07,51,1.10
2017,05,23,07,52,2.10
2017,05,23,07,53,1.60
2017,05,23,07,54,3.90
2017,05,23,07,55,5.20
2017,05,23,07,56,2.70
2017,05,23,07,57,3.00
2017,05,23,07,58,2.60
2017,05,23,07,59,1.60
2017,05,23,08,00,3.40
2017,05,23,08,01,4.40
2017,05,23,08,02,4.90
2017,05,23,08,03,2.40
2017,05,23,08,04,3.60
2017,05,23,08,05,3.50
2017,05,23,08,06,2.00
2017,05,23,08,07,4.90
2017,05,23,08,08,3.80
2017,05,23,08,09,2.90
2017,05,23,08,10,1.40
2017,05,23,08,11,2.50
2017,05,23,08,12,4.60
2017,05,23,08,13,2.60
2017,05,23,08,14,2.10
2017,05,23,08,15,1.30
2017,05,23,08,16,2.50
2017,05,23,08,17,4.80
2017,05,23,08,18,4.70
2017,05,23,08,19,2.00
2017,05,23,08,20,2.10
2017,05,23,08,21,2.60
2017,05,23,08,22,2.60
2017,05,23,08,23,1.20
2017,05,23,08,24,3.60
2017,05,23,08,25,2.10
2017,05,23,08,26,1.60
2017,05,23,08,27,2.20
2017,05,23,08,28,2.80
2017,05,23,08,29,2.50
2017,05,23,08,30,4.80
2017,05,23,08,31,4.20
2017,05,23,08,32,4.50
2017,05,23,08,33,1.80
2017,05,23,08,34,2.90
2017,05,23,08,35,6.60
2017,05,23,08,36,2.70
2017,05,23,08,37,1.60
2017,05,23,08,38,2.10
2017,05,23,08,39,2.90
2017,05,23,08,40,3.70
2017,05,23,08,41,1.60
2017,05,23,08,42,3.60
2017,05,23,08,43,3.40
2017,05,23,08,44,3.30
2017,05,23,08,45,5.00
2017,05,23,08,46,2.60
2017,05,23,08,47,4.50
2017,05,23,08,48,4.00
2017,05,23,08,49,4.40
2017,05,23,08,50,3.00
2017,05,23,08,51,3.10
2017,05,23,08,52,3.70
2017,05,23,08,53,7.80
2017,05,23,08,54,4.80
2017,05,23,08,55,3.80
2017,05,23,08,56,2.30
2017,05,23,08,57,3.30
2017,05,23,08,58,5.80
2017,05,23,08,59,3.40
2017,05,23,09,00,4.20
2017,05,23,09,01,4.60
2017,05,23,09,02,7.70
2017,05,23,09,03,8.20
2017,05,23,09,04,11.40
2017,05,23,09,05,9.30
2017,05,23,09,06,6.00
2017,05,23,09,07,5.50
2017,05,23,09,08,7.50
2017,05,23,09,09,7.20
2017,05,23,09,10,6.20
2017,05,23,09,11,4.80
2017,05,23,09,12,7.40
2017,05,23,09,13,6.30
2017,05,23,09,14,4.50
2017,05,23,09,15,4.90
2017,05,23,09,16,4.80
2017,05,23,09,17,8.20
2017,05,23,09,18,5.30
2017,05,23,09,19,3.40
2017,05,23,09,20,4.80
2017,05,23,09,21,6.10
2017,05,23,09,22,4.70
2017,05,23,09,23,5.20
2017,05,23,09,24,3.20
2017,05,23,09,25,4.00
2017,05,23,09,26,3.00
2017,05,23,09,27,6.30
2017,05,23,09,28,3.90
2017,05,23,09,29,5.60
2017,05,23,09,30,3.60
2017,05,23,09,31,3.90
2017,05,23,09,32,3.90
2017,05,23,09,33,2.50
2017,05,23,09,34,3.70
2017,05,23,09,35,3.40
2017,05,23,09,36,3.50
2017,05,23,09,37,3.80
2017,05,23,09,38,3.40
2017,05,23,09,39,6.30
2017,05,23,09,40,5.60
2017,05,23,09,41,5.80
2017,05,23,09,42,6.20
2017,05,23,09,43,7.10
2017,05,23,09,44,10.90
2017,05,23,09,45,10.50
2017,05,23,09,46,8.10
2017,05,23,09,47,8.30
2017,05,23,09,48,6.10
2017,05,23,09,49,4.10
2017,05,23,09,50,6.70
2017,05,23,09,51,7.60
2017,05,23,09,52,7.30
2017,05,23,09,53,5.30
2017,05,23,09,54,6.60
2017,05,23,09,55,8.00
2017,05,23,09,56,4.30
2017,05,23,09,57,3.20
2017,05,23,09,58,2.40
2017,05,23,09,59,2.10
2017,05,23,10,00,2.30
2017,05,23,10,01,4.70
2017,05,23,10,02,6.00
2017,05,23,10,03,6.70
2017,05,23,10,04,2.70
2017,05,23,10,05,2.90
2017,05,23,10,06,3.40
2017,05,23,10,07,2.50
2017,05,23,10,08,3.20
2017,05,23,10,09,5.80
2017,05,23,10,10,6.40
2017,05,23,10,11,5.60
2017,05,23,10,12,7.10
2017,05,23,10,13,4.30
2017,05,23,10,14,2.80
2017,05,23,10,15,2.50
2017,05,23,10,16,1.90
2017,05,23,10,17,2.90
2017,05,23,10,18,3.20
2017,05,23,10,19,2.40
2017,05,23,10,20,1.70
2017,05,23,10,21,3.40
2017,05,23,10,22,3.00
2017,05,23,10,23,4.00
2017,05,23,10,24,4.60
2017,05,23,10,25,5.00
2017,05,23,10,26,4.40
2017,05,23,10,27,6.00
2017,05,23,10,28,6.50
2017,05,23,10,29,3.90
2017,05,23,10,30,4.80
2017,05,23,10,31,8.10
2017,05,23,10,32,6.20
2017,05,23,10,33,4.00
2017,05,23,10,34,3.70
2017,05,23,10,35,2.10
2017,05,23,10,36,2.30
2017,05,23,10,37,3.90
2017,05,23,10,38,6.70
2017,05,23,10,39,5.90
2017,05,23,10,40,5.50
2017,05,23,10,41,3.30
2017,05,23,10,42,1.80
2017,05,23,10,43,2.20
2017,05,23,10,44,3.20
2017,05,23,10,45,2.90
2017,05,23,10,46,3.40
2017,05,23,10,47,3.80
2017,05,23,10,48,4.80
2017,05,23,10,49,6.30
2017,05,23,10,50,8.60
2017,05,23,10,51,6.50
2017,05,23,10,52,5.20
2017,05,23,10,53,5.20
2017,05,23,10,54,5.10
2017,05,23,10,55,3.00
2017,05,23,10,56,4.00
2017,05,23,10,57,1.80
2017,05,23,10,58,3.80
2017,05,23,10,59,3.40
2017,05,23,11,00,3.10
2017,05,23,11,01,2.40
2017,05,23,11,02,4.20
2017,05,23,11,03,5.90
2017,05,23,11,04,5.10
2017,05,23,11,05,5.40
2017,05,23,11,06,4.80
2017,05,23,11,07,3.50
2017,05,23,11,08,5.10
2017,05,23,11,09,4.70
2017,05,23,11,10,3.60
2017,05,23,11,11,4.00
2017,05,23,11,12,5.20
2017,05,23,11,13,1.60
2017,05,23,11,14,4.40
2017,05,23,11,15,2.70
2017,05,23,11,16,5.20
2017,05,23,11,17,9.30
2017,05,23,11,18,7.00
2017,05,23,11,19,4.30
2017,05,23,11,20,3.70
2017,05,23,11,21,5.90
2017,05,23,11,22,4.20
2017,05,23,11,23,6.50
2017,05,23,11,24,5.40
2017,05,23,11,25,5.10
2017,05,23,11,26,6.30
2017,05,23,11,27,6.60
2017,05,23,11,28,5.90
2017,05,23,11,29,4.70
2017,05,23,11,30,7.10
2017,05,23,11,31,4.50
2017,05,23,11,32,10.30
2017,05,23,11,33,11.50
2017,05,23,11,34,9.40
2017,05,23,11,35,7.60
2017,05,23,11,36,5.90
2017,05,23,11,37,5.50
2017,05,23,11,38,12.00
2017,05,23,11,39,9.00
2017,05,23,11,40,9.40
2017,05,23,11,41,8.20
2017,05,23,11,42,8.20
2017,05,23,11,43,10.10
2017,05,23,11,44,7.30
2017,05,23,11,45,9.80
2017,05,23,11,46,9.70
2017,05,23,11,47,12.10
2017,05,23,11,48,7.60
2017,05,23,11,49,7.60
2017,05,23,11,50,8.60
2017,05,23,11,51,11.50
2017,05,23,11,52,6.70
2017,05,23,11,53,8.20
2017,05,23,11,54,9.50
2017,05,23,11,55,8.00
2017,05,23,11,56,9.80
2017,05,23,11,57,6.80
2017,05,23,11,58,5.70
2017,05,23,11,59,5.30
2017,05,23,12,00,5.60
2017,05,23,12,01,5.90
2017,05,23,12,02,8.00
2017,05,23,12,03,10.60
2017,05,23,12,04,9.80
2017,05,23,12,05,6.70
2017,05,23,12,06,8.00
2017,05,23,12,07,6.80
2017,05,23,12,08,5.20
2017,05,23,12,09,10.50
2017,05,23,12,10,9.90
2017,05,23,12,11,10.40
2017,05,23,12,12,7.50
2017,05,23,12,13,4.80
2017,05,23,12,14,7.60
2017,05,23,12,15,10.40
2017,05,23,12,16,12.00
2017,05,23,12,17,12.40
2017,05,23,12,18,12.00
2017,05,23,12,19,10.70
2017,05,23,12,20,10.20
2017,05,23,12,21,13.90
2017,05,23,12,22,13.30
2017,05,23,12,23,14.00
2017,05,23,12,24,11.50
2017,05,23,12,25,9.50
2017,05,23,12,26,9.70
2017,05,23,12,27,10.80
2017,05,23,12,28,9.40
2017,05,23,12,29,8.20
2017,05,23,12,30,9.90
2017,05,23,12,31,9.60
2017,05,23,12,32,9.40
2017,05,23,12,33,8.60
2017,05,23,12,34,8.30
2017,05,23,12,35,10.40
2017,05,23,12,36,10.30
2017,05,23,12,37,7.70
2017,05,23,12,38,8.90
2017,05,23,12,39,10.50
2017,05,23,12,40,8.30
2017,05,23,12,41,7.30
2017,05,23,12,42,7.80
2017,05,23,12,43,10.30
2017,05,23,12,44,9.30
2017,05,23,12,45,11.20
2017,05,23,12,46,8.50
2017,05,23,12,47,11.90
2017,05,23,12,48,6.70
2017,05,23,12,49,6.20
2017,05,23,12,50,8.30
2017,05,23,12,51,8.10
2017,05,23,12,52,6.40
2017,05,23,12,53,5.30
2017,05,23,12,54,5.80
2017,05,23,12,55,9.70
2017,05,23,12,56,8.10
2017,05,23,12,57,7.70
2017,05,23,12,58,7.00
2017,05,23,12,59,8.10
2017,05,23,13,00,5.60
2017,05,23,13,01,6.70
2017,05,23,13,02,4.80
2017,05,23,13,03,4.30
2017,05,23,13,04,5.90
2017,05,23,13,05,6.10
2017,05,23,13,06,4.30
2017,05,23,13,07,3.20
2017,05,23,13,08,3.70
2017,05,23,13,09,4.00
2017,05,23,13,10,6.20
2017,05,23,13,11,6.80
2017,05,23,13,12,4.50
2017,05,23,13,13,3.40
2017,05,23,13,14,4.00
2017,05,23,13,15,3.00
2017,05,23,13,16,4.10
2017,05,23,13,17,4.50
2017,05,23,13,18,1.80
2017,05,23,13,19,3.20
2017,05,23,13,20,5.40
2017,05,23,13,21,4.70
2017,05,23,13,22,3.60
2017,05,23,13,23,2.10
2017,05,23,13,24,5.40
2017,05,23,13,25,2.90
2017,05,23,13,26,3.00
2017,05,23,13,27,5.30
2017,05,23,13,28,5.80
2017,05,23,13,29,6.40
2017,05,23,13,30,2.80
2017,05,23,13,31,3.60
2017,05,23,13,32,3.30
2017,05,23,13,33,3.50
2017,05,23,13,34,3.30
2017,05,23,13,35,2.60
2017,05,23,13,36,3.00
2017,05,23,13,37,3.70
2017,05,23,13,38,3.10
2017,05,23,13,39,3.20
2017,05,23,13,40,5.10
2017,05,23,13,41,5.10
2017,05,23,13,42,5.30
2017,05,23,13,43,6.90
2017,05,23,13,44,6.40
2017,05,23,13,45,6.10
2017,05,23,13,46,5.20
2017,05,23,13,47,5.20
2017,05,23,13,48,4.20
2017,05,23,13,49,4.60
2017,05,23,13,50,4.00
2017,05,23,13,51,3.70
2017,05,23,13,52,3.80
2017,05,23,13,53,6.80
2017,05,23,13,54,6.80
2017,05,23,13,55,5.90
2017,05,23,13,56,5.70
2017,05,23,13,57,6.10
2017,05,23,13,58,5.20
2017,05,23,13,59,3.60
2017,05,23,14,00,5.70
2017,05,23,14,01,5.80
2017,05,23,14,02,9.00
2017,05,23,14,03,5.80
2017,05,23,14,04,6.20
2017,05,23,14,05,7.00
2017,05,23,14,06,7.20
2017,05,23,14,07,4.80
2017,05,23,14,08,2.50
2017,05,23,14,09,3.20
2017,05,23,14,10,3.80
2017,05,23,14,11,2.80
2017,05,23,14,12,2.90
2017,05,23,14,13,4.10
2017,05,23,14,14,5.30
2017,05,23,14,15,3.50
2017,05,23,14,16,4.20
2017,05,23,14,17,3.80
2017,05,23,14,18,5.30
2017,05,23,14,19,5.30
2017,05,23,14,20,3.90
2017,05,23,14,21,5.10
2017,05,23,14,22,4.10
2017,05,23,14,23,4.30
2017,05,23,14,24,6.90
2017,05,23,14,25,6.30
2017,05,23,14,26,5.90
2017,05,23,14,27,4.50
2017,05,23,14,28,5.70
2017,05,23,14,29,4.90
2017,05,23,14,30,5.60
2017,05,23,14,31,5.40
2017,05,23,14,32,3.80
2017,05,23,14,33,3.30
2017,05,23,14,34,5.80
2017,05,23,14,35,7.00
2017,05,23,14,36,8.20
2017,05,23,14,37,8.90
2017,05,23,14,38,9.60
2017,05,23,14,39,8.00
2017,05,23,14,40,5.50
2017,05,23,14,41,5.00
2017,05,23,14,42,10.30
2017,05,23,14,43,9.90
2017,05,23,14,44,6.30
2017,05,23,14,45,11.10
2017,05,23,14,46,9.80
2017,05,23,14,47,8.40
2017,05,23,14,48,14.30
2017,05,23,14,49,19.00
2017,05,23,14,50,13.90
2017,05,23,14,51,11.40
2017,05,23,14,52,13.50
2017,05,23,14,53,13.30
2017,05,23,14,54,9.70
2017,05,23,14,55,17.50
2017,05,23,14,56,14.60
2017,05,23,14,57,17.50
2017,05,23,14,58,13.00
2017,05,23,14,59,12.50
2017,05,23,15,00,17.00
2017,05,23,15,01,18.00
2017,05,23,15,02,9.00
2017,05,23,15,03,15.40
2017,05,23,15,04,14.70
2017,05,23,15,05,11.40
2017,05,23,15,06,16.60
2017,05,23,15,07,13.80
2017,05,23,15,08,11.00
2017,05,23,15,09,16.30
2017,05,23,15,10,15.90
2017,05,23,15,11,11.70
2017,05,23,15,12,11.40
2017,05,23,15,13,8.30
2017,05,23,15,14,10.20
2017,05,23,15,15,18.80
2017,05,23,15,16,15.20
2017,05,23,15,17,9.20
2017,05,23,15,18,9.40
2017,05,23,15,19,10.70
2017,05,23,15,20,11.20
2017,05,23,15,21,18.00
2017,05,23,15,22,15.70
2017,05,23,15,23,13.50
2017,05,23,15,24,11.10
2017,05,23,15,25,11.40
2017,05,23,15,26,12.10
2017,05,23,15,27,16.40
2017,05,23,15,28,13.90
2017,05,23,15,29,19.50
2017,05,23,15,30,22.50
2017,05,23,15,31,16.90
2017,05,23,15,32,20.10
2017,05,23,15,33,7.80
2017,05,23,15,34,16.40
2017,05,23,15,35,20.50
2017,05,23,15,36,14.10
2017,05,23,15,37,20.50
2017,05,23,15,38,18.40
2017,05,23,15,39,20.60
2017,05,23,15,40,20.60
2017,05,23,15,41,16.50
2017,05,23,15,42,13.90
2017,05,23,15,43,13.70
2017,05,23,15,44,11.10
2017,05,23,15,45,13.00
2017,05,23,15,46,14.30
2017,05,23,15,47,17.60
2017,05,23,15,48,15.90
2017,05,23,15,49,14.90
2017,05,23,15,50,13.50
2017,05,23,15,51,12.20
2017,05,23,15,52,13.90
2017,05,23,15,53,20.50
2017,05,23,15,54,17.80
2017,05,23,15,55,19.60
2017,05,23,15,56,21.50
2017,05,23,15,57,21.40
2017,05,23,15,58,9.30
2017,05,23,15,59,16.00
2017,05,23,16,00,15.80
2017,05,23,16,01,9.10
2017,05,23,16,02,18.10
2017,05,23,16,03,16.00
2017,05,23,16,04,16.70
2017,05,23,16,05,12.90
2017,05,23,16,06,12.30
2017,05,23,16,07,13.50
2017,05,23,16,08,8.60
2017,05,23,16,09,8.80
2017,05,23,16,10,14.50
2017,05,23,16,11,13.60
2017,05,23,16,12,18.40
2017,05,23,16,13,13.90
2017,05,23,16,14,16.60
2017,05,23,16,15,13.30
2017,05,23,16,16,13.80
2017,05,23,16,17,13.90
2017,05,23,16,18,11.10
2017,05,23,16,19,14.70
2017,05,23,16,20,16.50
2017,05,23,16,21,17.40
2017,05,23,16,22,14.00
2017,05,23,16,23,8.60
2017,05,23,16,24,9.40
2017,05,23,16,25,16.70
2017,05,23,16,26,19.30
2017,05,23,16,27,12.00
2017,05,23,16,28,9.20
2017,05,23,16,29,15.90
2017,05,23,16,30,13.40
2017,05,23,16,31,12.20
2017,05,23,16,32,13.30
2017,05,23,16,33,15.30
2017,05,23,16,34,15.20
2017,05,23,16,35,10.90
2017,05,23,16,36,18.30
2017,05,23,16,37,12.70
2017,05,23,16,38,8.20
2017,05,23,16,39,7.40
2017,05,23,16,40,9.50
2017,05,23,16,41,12.00
2017,05,23,16,42,20.90
2017,05,23,16,43,9.70
2017,05,23,16,44,13.20
2017,05,23,16,45,15.30
2017,05,23,16,46,14.90
2017,05,23,16,47,8.30
2017,05,23,16,48,10.40
2017,05,23,16,49,16.50
2017,05,23,16,50,11.80
2017,05,23,16,51,10.30
2017,05,23,16,52,16.80
2017,05,23,16,53,10.10
2017,05,23,16,54,12.60
2017,05,23,16,55,8.20
2017,05,23,16,56,8.90
2017,05,23,16,57,11.00
2017,05,23,16,58,8.40
2017,05,23,16,59,12.40
2017,05,23,17,00,12.40
2017,05,23,17,01,12.30
2017,05,23,17,02,6.90
2017,05,23,17,03,7.90
2017,05,23,17,04,9.80
2017,05,23,17,05,8.50
2017,05,23,17,06,8.00
2017,05,23,17,07,6.70
2017,05,23,17,08,5.40
2017,05,23,17,09,5.00
2017,05,23,17,10,11.60
2017,05,23,17,11,6.30
2017,05,23,17,12,5.00
2017,05,23,17,13,2.90
2017,05,23,17,14,4.90
2017,05,23,17,15,5.50
2017,05,23,17,16,10.50
2017,05,23,17,17,16.10
2017,05,23,17,18,19.90
2017,05,23,17,19,15.40
2017,05,23,17,20,18.90
2017,05,23,17,21,16.50
2017,05,23,17,22,20.00
2017,05,23,17,23,7.40
2017,05,23,17,24,5.80
2017,05,23,17,25,5.30
2017,05,23,17,26,10.50
2017,05,23,17,27,11.60
2017,05,23,17,28,8.20
2017,05,23,17,29,15.20
2017,05,23,17,30,14.70
2017,05,23,17,31,11.30
2017,05,23,17,32,23.00
2017,05,23,17,33,14.40
2017,05,23,17,34,11.40
2017,05,23,17,35,13.70
2017,05,23,17,36,14.00
2017,05,23,17,37,12.40
2017,05,23,17,38,22.00
2017,05,23,17,39,20.40
2017,05,23,17,40,22.60
2017,05,23,17,41,14.90
2017,05,23,17,42,24.20
2017,05,23,17,43,14.40
2017,05,23,17,44,19.30
2017,05,23,17,45,21.80
2017,05,23,17,46,21.90
2017,05,23,17,47,18.50
2017,05,23,17,48,16.90
2017,05,23,17,49,11.80
2017,05,23,17,50,9.60
2017,05,23,17,51,20.30
2017,05,23,17,52,27.20
2017,05,23,17,53,20.60
2017,05,23,17,54,27.70
2017,05,23,17,55,26.20
2017,05,23,17,56,25.80
2017,05,23,17,57,14.30
2017,05,23,17,58,18.60